Location: Dentlein
(49.1477°N, 10.4231°E)
Time: 19:43:41
(UTC+00:00)

Cosmos 1733 Rocket - Pass Details

Date: 23 May 2024
Orbit: 600 x 623 km, 82.5° (Epoch: 23 June)

Event Time Altitude Azimuth Distance (km) Brightness Sun altitude
Rises 00:24:36 0° 344° (NNW) 2,867 7.4 -18.5°
Reaches altitude 10° 00:26:53 10° 338° (NNW) 1,961 6.3 -18.4°
Maximum altitude 00:30:59 43° 267° (W) 856 3.6 -18.2°
Enters shadow 00:32:05 35° 229° (SW) 979 3.6 -18.1°
